Regional Weather Roundup
Issued by NWS Sioux Falls, SD

Home | Current Version | Previous Version | Graphics & Text | Print | Product List | Glossary Off
Versions: 1 2 3 4 5 6 7 8 9 10 11 12 13 14 15 16 17 18 19 20 21 22 23 24 25 26 27 28 29 30 31 32 33 34 35 36 37 38 39 40 41 42 43 44 45 46 47 48 49 50

000
ASUS43 KFSD 012010
RWRFSD

WEATHER ROUNDUP FOR SE SOUTH DAKOTA/SW MINNESOTA/NW IOWA
NATIONAL WEATHER SERVICE SIOUX FALLS SD
300 PM CDT WED JUL 01 2015

NOTE: "FAIR" INDICATES FEW OR NO CLOUDS BELOW 12,000 FEET WITH NO
SIGNIFICANT WEATHER AND OR OBSTRUCTIONS TO VISIBILITY.


SDZ038>040-050-052>070-012100-
SOUTHEAST SOUTH DAKOTA

CITY           SKY/WX    TMP DP  RH WIND       PRES   REMARKS
BROOKINGS      CLOUDY    72  61  68 SE14      29.97S
CHAMBERLAIN    CLOUDY    76  66  69 SE6       29.91S
HURON          MOSUNNY   79  67  66 E8        29.91S
MADISON        FAIR      75  64  69 SE15G22   29.95S
MITCHELL       MOSUNNY   79  67  66 S8        29.91F
SIOUX FALLS    CLOUDY    72  63  73 SE13      29.94F
WINNER         FAIR      86  66  51 N7        29.90S
YANKTON        PTSUNNY   77  66  69 E9        29.89S
$$

MNZ071-072-080-081-089-090-097-098-012100-
SOUTHWEST MINNESOTA

CITY           SKY/WX    TMP DP  RH WIND       PRES   REMARKS
FAIRMONT       CLOUDY    64  52  63 E8        29.99R
JACKSON        CLOUDY    72  55  56 SE10      29.98S
LUVERNE        CLOUDY    75  59  57 SE13G18   29.97R
MARSHALL       PTSUNNY   72  55  56 S7        29.97S
MONTEVIDEO     PTSUNNY   70  54  56 S8        29.99S
PIPESTONE      SUNNY     73  55  53 SE10      29.96S
REDWOOD FALLS  PTSUNNY   68  53  58 E8        29.99S
TRACY          PTSUNNY   72  55  56 E10       29.99R
WINDOM         SUNNY     72  54  53 E6        29.99R
WORTHINGTON    MOSUNNY   73  52  46 SE13      29.97S
$$

IAZ001>003-012>014-020>022-031-032-NEZ013-014-SDZ071-012100-
NORTHWEST IOWA

CITY           SKY/WX    TMP DP  RH WIND       PRES   REMARKS
CHEROKEE       PTSUNNY   72  64  76 E9G16     29.94S
DENISON        CLOUDY    72  68  88 E12       29.91S
ESTHERVILLE    MOSUNNY   70  53  54 E10       29.98S
LE MARS        CLOUDY    73  66  78 E10       29.93F
ORANGE CITY    MOSUNNY   73  63  68 E8        29.94F
SHELDON        PTSUNNY   72  70  94 E13       29.95S
SIOUX CITY     PTSUNNY   76  66  71 E9        29.90S
SPENCER        MOSUNNY   73  54  51 E15       29.97R
STORM LAKE     PTSUNNY   72  63  73 E14       29.95S
$$

ABBREVIATIONS USED IN REMARKS
   TC - TEMPERATURE IN CELSIUS
  WCI - WIND CHILL INDEX
   HX - HEAT INDEX
  VSB - VISIBILITY




USA.gov is the U.S. government's official web portal to all federal, state and local government web resources and services.